Regional Weather Roundup
Issued by NWS

Home | Current Version | Previous Version | Text Only | Print | Product List | Glossary Off
Versions: 1 2 3 4 5 6 7 8 9 10 11 12 13 14 15 16 17 18 19 20 21 22 23 24 25 26 27 28 29 30 31 32 33 34 35 36 37 38 39 40 41 42 43 44 45 46 47 48 49 50

000
ASUS43 KFSD 310410
RWRSD

WEATHER ROUNDUP FOR SOUTH DAKOTA
NATIONAL WEATHER SERVICE SIOUX FALLS SD
1100 PM CDT SUN AUG 30 2015

NOTE: "FAIR" INDICATES FEW OR NO CLOUDS BELOW 12,000 FEET WITH NO
SIGNIFICANT WEATHER AND/OR OBSTRUCTIONS TO VISIBILITY.


SDZ001>005-009-010-012>017-310500-
NORTHWEST AND NORTH CENTRAL SOUTH DAKOTA

CITY           SKY/WX    TMP DP  RH WIND       PRES   REMARKS
BUFFALO          N/A     71  55  56 SE7       29.69R
FAITH            N/A     81  54  39 W18G30    29.75S
MOBRIDGE       PTCLDY    78  60  53 S14       29.65S
$$

SDZ012>016-024>037-041>051-057-063-072>074-310500-
SOUTHWEST AND SOUTH CENTRAL SOUTH DAKOTA

CITY           SKY/WX    TMP DP  RH WIND       PRES   REMARKS
RAPID CTY ARPT MOCLDY    70  59  68 W12       29.77S
PIERRE         CLEAR     76  56  49 SE14      29.70S
CUSTER         PTCLDY    67  50  54 MISG      29.96F
ELLSWORTH AFB  MOCLDY    68  59  74 W8        29.76F
PHILIP         PTCLDY    83  52  34 SW10      29.71R
PINE RIDGE     PTCLDY    83  45  26 S15       29.81F
WINNER         FAIR      79  59  50 S25G32    29.76S
$$

SDZ004>011-016>023-039-040-310500-
NORTHEAST SOUTH DAKOTA

CITY           SKY/WX    TMP DP  RH WIND       PRES   REMARKS
ABERDEEN       PTCLDY    71  65  81 S21G28    29.74S
WATERTOWN      PTCLDY    67  63  87 S16       29.83F
BROOKINGS      MOCLDY    64  63  94 S17       29.90S
SISSETON         N/A     66  62  87 S8        29.76S
$$

SDZ017-020-022-023-036>040-048>070-310500-
SOUTHEAST SOUTH DAKOTA

CITY           SKY/WX    TMP DP  RH WIND       PRES   REMARKS
SIOUX FALLS    CLOUDY    67  64  90 S10       29.91S
HURON          CLEAR     70  65  84 S14G25    29.78F
CHAMBERLAIN    CLEAR     72  67  83 SE12      29.77S
MITCHELL       CLEAR     69  66  90 S16       29.82F
YANKTON        PTCLDY    68  64  88 SE6       29.89S
$$

ABBREVIATIONS USED IN REMARKS
   TC - TEMPERATURE IN CELSIUS
  WCI - WIND CHILL INDEX
   HX - HEAT INDEX
  VSB - VISIBILITY




USA.gov is the U.S. government's official web portal to all federal, state and local government web resources and services.